Language: 


Des rapports , des résumés tant et plus, au choix de chacun....


Données Historiques de Météogheer
Journalier Rapport pour Avril 16, 2017 Unitée:  Métrique    Impériale   Les deux
Suivant Jour »
Journalier Hebdomadaire Mensuel Annuel Sur mesure
  Max: Min: Moyenne:
Température: 17.3 °C 0.0 °C 10 °C
Point de rosée: 8.1 °C 1.9 °C 3.5 °C
Humidité: 90% 0% 43%
Vent: 20.6km/h 0.0km/h 8.2km/h
Rafales: 23.8km/h - -
Vent- - WNW
Pression: 1020.9 hPa 0.0 hPa -
Pluie: 0.0 mm    
Historical Graphs
 
 
Données tabulaires pour Avril 16, 2017
Heure Température Point de rosée Pression Vent Vent Rafales Humidité Pluie Taux (Horaire) Conditions
00:20 14.1 °C 2.7 °C 1016.8 hPa North 4.7 km/h 15.8 km/h 46% 0.0 mm
00:25 14.1 °C 2.7 °C 1016.8 hPa North 4.7 km/h 15.8 km/h 46% 0.0 mm
00:30 14.1 °C 2.7 °C 1016.8 hPa North 4.7 km/h 15.8 km/h 46% 0.0 mm
00:49 6.8 °C 2.1 °C 0.0 hPa Calm     72% 0.0 mm
00:54 6.6 °C 1.9 °C 1018.2 hPa Calm   5.5 km/h 72% 0.0 mm
01:00 0.0 °C 2.6 °C 0.0 hPa Calm     0% 0.0 mm
01:05 0.0 °C 2.6 °C 0.0 hPa Calm     0% 0.0 mm
01:10 0.0 °C 2.6 °C 0.0 hPa Calm     0% 0.0 mm
01:15 0.0 °C 2.6 °C 0.0 hPa Calm     0% 0.0 mm
01:20 0.0 °C 2.6 °C 0.0 hPa Calm     0% 0.0 mm
01:25 0.0 °C 2.6 °C 0.0 hPa Calm     0% 0.0 mm
01:30 0.0 °C 2.6 °C 0.0 hPa Calm     0% 0.0 mm
01:35 0.0 °C 2.6 °C 0.0 hPa Calm     0% 0.0 mm
01:40 0.0 °C 2.6 °C 0.0 hPa Calm     0% 0.0 mm
01:45 0.0 °C 2.6 °C 0.0 hPa Calm     0% 0.0 mm
01:50 0.0 °C 2.6 °C 0.0 hPa Calm     0% 0.0 mm
01:55 0.0 °C 2.6 °C 0.0 hPa Calm     0% 0.0 mm
02:00 0.0 °C 2.6 °C 0.0 hPa Calm     0% 0.0 mm
02:05 0.0 °C 2.6 °C 0.0 hPa Calm     0% 0.0 mm
02:07 0.0 °C 2.6 °C 0.0 hPa Calm     0% 0.0 mm
02:12 0.0 °C 2.6 °C 0.0 hPa Calm     0% 0.0 mm
07:30 0.0 °C 2.6 °C 0.0 hPa Calm     0% 0.0 mm
07:35 0.0 °C 2.6 °C 0.0 hPa Calm     0% 0.0 mm
07:40 0.0 °C 2.6 °C 0.0 hPa Calm     0% 0.0 mm
08:21 0.0 °C 3.5 °C 0.0 hPa Calm     0% 0.0 mm
08:26 6.4 °C 4.9 °C 1020.9 hPa West 7.9 km/h 11.9 km/h 90% 0.0 mm
08:36 0.0 °C 5.0 °C 0.0 hPa WSW 10.5 km/h 10.5 km/h 0% 0.0 mm
08:41 7.1 °C 5.6 °C 1019.9 hPa West 11.1 km/h 14.3 km/h 90% 0.0 mm
08:46 7.4 °C 5.7 °C 1019.9 hPa WSW 10.1 km/h 14.3 km/h 89% 0.0 mm
08:51 7.7 °C 6.0 °C 1019.9 hPa West 9.7 km/h 13.0 km/h 89% 0.0 mm
08:56 7.9 °C 6.2 °C 1019.9 hPa WSW 12.6 km/h 13.7 km/h 89% 0.0 mm
09:02 8.1 °C 6.2 °C 1019.9 hPa West 9.7 km/h 13.7 km/h 88% 0.0 mm
09:07 8.3 °C 6.4 °C 1020.9 hPa WSW 9.0 km/h 12.2 km/h 88% 0.0 mm
09:12 8.6 °C 6.7 °C 1020.9 hPa West 12.2 km/h 13.7 km/h 88% 0.0 mm
09:17 9.0 °C 6.9 °C 1020.9 hPa SSW 14.0 km/h 15.4 km/h 87% 0.0 mm
09:22 9.3 °C 7.1 °C 1020.9 hPa West 10.1 km/h 15.4 km/h 86% 0.0 mm
09:27 9.5 °C 7.3 °C 1020.9 hPa NW 6.9 km/h 13.7 km/h 86% 0.0 mm
09:32 9.7 °C 7.3 °C 1020.9 hPa West 4.7 km/h 13.7 km/h 85% 0.0 mm
09:37 10.3 °C 7.7 °C 1020.9 hPa NW 3.5 km/h 11.9 km/h 84% 0.0 mm
09:42 10.7 °C 7.9 °C 1020.9 hPa NW 9.0 km/h 11.9 km/h 83% 0.0 mm
09:47 11.2 °C 8.1 °C 1020.9 hPa WNW 7.9 km/h 12.6 km/h 81% 0.0 mm
09:52 11.3 °C 7.4 °C 1020.9 hPa North 6.9 km/h 13.0 km/h 77% 0.0 mm
09:57 11.7 °C 7.4 °C 1020.9 hPa NNW 5.8 km/h 13.0 km/h 75% 0.0 mm
10:02 12.0 °C 7.1 °C 1020.9 hPa West 3.2 km/h 19.5 km/h 72% 0.0 mm
10:07 12.1 °C 6.4 °C 1020.9 hPa SSW 9.3 km/h 19.5 km/h 68% 0.0 mm
10:12 11.9 °C 5.9 °C 1020.9 hPa NNW 12.6 km/h 16.9 km/h 67% 0.0 mm
10:17 11.8 °C 5.9 °C 1020.9 hPa WNW 11.6 km/h 16.9 km/h 67% 0.0 mm
10:22 11.7 °C 5.3 °C 1020.9 hPa WNW 3.2 km/h 20.9 km/h 65% 0.0 mm
10:27 11.7 °C 5.1 °C 1020.9 hPa NW 5.8 km/h 20.9 km/h 64% 0.0 mm
10:32 11.8 °C 5.0 °C 1020.9 hPa WNW 5.5 km/h 16.9 km/h 63% 0.0 mm
10:37 11.7 °C 4.7 °C 1020.9 hPa NNW 9.3 km/h 17.2 km/h 62% 0.0 mm
10:42 11.7 °C 4.4 °C 1020.9 hPa West 11.9 km/h 11.9 km/h 61% 0.0 mm
10:47 11.5 °C 3.0 °C 1020.9 hPa NNE 12.2 km/h 17.7 km/h 56% 0.0 mm
10:52 11.5 °C 2.5 °C 1019.9 hPa WNW 6.4 km/h 17.7 km/h 54% 0.0 mm
10:57 11.9 °C 3.1 °C 1019.9 hPa WSW 5.5 km/h 16.3 km/h 55% 0.0 mm
11:02 12.2 °C 3.2 °C 1019.9 hPa WNW 10.5 km/h 16.9 km/h 54% 0.0 mm
11:07 12.5 °C 3.2 °C 1020.9 hPa NNW 12.2 km/h 16.9 km/h 53% 0.0 mm
11:12 13.1 °C 3.7 °C 1020.9 hPa NW 6.1 km/h 16.9 km/h 53% 0.0 mm
11:17 12.9 °C 3.3 °C 1020.9 hPa NW 10.5 km/h 20.9 km/h 52% 0.0 mm
11:22 12.8 °C 2.9 °C 1020.9 hPa West 10.5 km/h 20.9 km/h 51% 0.0 mm
11:27 12.9 °C 3.0 °C 1020.9 hPa West 9.7 km/h 17.7 km/h 51% 0.0 mm
11:32 13.1 °C 2.9 °C 1020.9 hPa WSW 15.8 km/h 20.9 km/h 50% 0.0 mm
11:37 13.6 °C 3.4 °C 1020.9 hPa NNW 17.7 km/h 20.9 km/h 50% 0.0 mm
11:42 13.7 °C 2.9 °C 1020.9 hPa West 8.7 km/h 18.3 km/h 48% 0.0 mm
11:47 13.8 °C 2.9 °C 1020.9 hPa WNW 13.7 km/h 20.6 km/h 48% 0.0 mm
11:53 13.8 °C 2.9 °C 1020.9 hPa West 7.9 km/h 20.6 km/h 48% 0.0 mm
11:58 13.5 °C 2.7 °C 1020.9 hPa WNW 18.3 km/h 19.5 km/h 48% 0.0 mm
12:03 13.5 °C 2.7 °C 1020.9 hPa WNW 9.7 km/h 20.1 km/h 48% 0.0 mm
12:08 13.4 °C 2.6 °C 1020.9 hPa West 6.9 km/h 20.1 km/h 48% 0.0 mm
12:13 13.3 °C 2.5 °C 1020.9 hPa NNW 10.1 km/h 16.6 km/h 48% 0.0 mm
12:18 13.4 °C 2.3 °C 1020.9 hPa SSW 12.2 km/h 21.2 km/h 47% 0.0 mm
12:23 13.3 °C 2.5 °C 1020.9 hPa West 15.4 km/h 21.2 km/h 48% 0.0 mm
12:28 13.4 °C 2.6 °C 1020.9 hPa North 7.9 km/h 16.9 km/h 48% 0.0 mm
12:33 13.5 °C 2.7 °C 1020.9 hPa NW 12.6 km/h 20.9 km/h 48% 0.0 mm
12:38 13.8 °C 2.9 °C 1020.9 hPa North 11.6 km/h 20.9 km/h 48% 0.0 mm
12:43 13.7 °C 2.6 °C 1020.9 hPa ENE 10.1 km/h 17.2 km/h 47% 0.0 mm
12:48 13.7 °C 2.6 °C 1020.9 hPa WNW 10.8 km/h 17.2 km/h 47% 0.0 mm
12:53 13.9 °C 2.8 °C 1020.9 hPa West 8.7 km/h 20.1 km/h 47% 0.0 mm
12:58 13.8 °C 2.4 °C 1020.9 hPa WSW 9.7 km/h 23.8 km/h 46% 0.0 mm
13:03 14.1 °C 2.3 °C 1020.9 hPa NW 10.1 km/h 23.8 km/h 45% 0.0 mm
13:08 14.2 °C 2.7 °C 1020.9 hPa North 14.0 km/h 19.5 km/h 46% 0.0 mm
13:13 14.2 °C 2.7 °C 1020.9 hPa NNE 12.2 km/h 18.3 km/h 46% 0.0 mm
13:18 13.9 °C 2.2 °C 1020.9 hPa NNW 7.6 km/h 18.3 km/h 45% 0.0 mm
13:23 14.3 °C 2.5 °C 1020.9 hPa WNW 10.1 km/h 14.8 km/h 45% 0.0 mm
13:28 15.3 °C 3.4 °C 1020.9 hPa SW 6.1 km/h 16.9 km/h 45% 0.0 mm
13:33 0.0 °C 3.0 °C 1020.9 hPa NW 20.1 km/h 20.1 km/h 0% 0.0 mm
13:38 15.4 °C 3.2 °C 1020.9 hPa NW 9.7 km/h 23.3 km/h 44% 0.0 mm
13:43 15.4 °C 3.2 °C 1020.9 hPa West 16.9 km/h 23.3 km/h 44% 0.0 mm
13:49 15.8 °C 3.6 °C 1020.9 hPa WSW 17.2 km/h 23.3 km/h 44% 0.0 mm
13:56 0.0 °C 3.0 °C 0.0 hPa West 16.6 km/h 19.5 km/h 0% 0.0 mm
14:01 15.3 °C 2.1 °C 1019.9 hPa WSW 7.9 km/h 16.6 km/h 41% 0.0 mm
14:06 15.4 °C 2.2 °C 1020.9 hPa WNW 10.1 km/h 16.9 km/h 41% 0.0 mm
14:11 15.7 °C 2.8 °C 1020.9 hPa West 9.3 km/h 21.2 km/h 42% 0.0 mm
14:16 16.0 °C 2.7 °C 1020.9 hPa NNW 9.0 km/h 21.2 km/h 41% 0.0 mm
14:21 15.4 °C 2.2 °C 1019.9 hPa West 19.5 km/h 20.9 km/h 41% 0.0 mm
14:27 15.6 °C 2.4 °C 1019.9 hPa North 7.9 km/h 20.9 km/h 41% 0.0 mm
14:32 16.1 °C 2.8 °C 1019.9 hPa North 6.9 km/h 19.8 km/h 41% 0.0 mm
14:37 16.2 °C 2.6 °C 1020.9 hPa North 20.6 km/h 20.6 km/h 40% 0.0 mm
14:42 16.3 °C 2.7 °C 1020.9 hPa West 8.7 km/h 20.6 km/h 40% 0.0 mm
14:47 15.8 °C 2.2 °C 1020.9 hPa WNW 10.5 km/h 16.9 km/h 40% 0.0 mm
14:52 16.0 °C 2.4 °C 1019.9 hPa NNW 9.7 km/h 16.9 km/h 40% 0.0 mm
14:57 16.2 °C 2.2 °C 1019.9 hPa WNW 14.0 km/h 15.1 km/h 39% 0.0 mm
15:02 16.1 °C 2.1 °C 1019.9 hPa NNW 11.9 km/h 15.1 km/h 39% 0.0 mm
15:07 16.5 °C 2.5 °C 1019.9 hPa NW 16.9 km/h 16.9 km/h 39% 0.0 mm
15:12 16.5 °C 2.5 °C 1019.9 hPa WNW 13.0 km/h 19.5 km/h 39% 0.0 mm
15:18 0.0 °C 2.5 °C 0.0 hPa Calm     0% 0.0 mm
15:23 0.0 °C 2.5 °C 0.0 hPa West 15.4 km/h 15.8 km/h 0% 0.0 mm
15:28 16.8 °C 2.8 °C 1019.9 hPa NNW 6.1 km/h 22.4 km/h 39% 0.0 mm
15:33 17.3 °C 3.2 °C 1019.9 hPa WNW 9.7 km/h 16.6 km/h 39% 0.0 mm
15:38 17.0 °C 2.9 °C 1020.9 hPa WSW 10.5 km/h 20.6 km/h 39% 0.0 mm
15:43 0.0 °C 2.4 °C 1020.9 hPa NE 11.9 km/h 13.7 km/h 0% 0.0 mm
15:48 16.5 °C 2.8 °C 1020.9 hPa WNW 6.9 km/h 15.8 km/h 40% 0.0 mm
15:53 16.5 °C 2.5 °C 1020.9 hPa NNW 11.6 km/h 15.8 km/h 39% 0.0 mm
15:58 16.2 °C 2.2 °C 1020.9 hPa WNW 5.5 km/h 19.8 km/h 39% 0.0 mm
16:03 16.6 °C 2.9 °C 1020.9 hPa North 10.5 km/h 19.8 km/h 40% 0.0 mm
18:16 0.0 °C 2.5 °C 0.0 hPa NNW 10.1 km/h 10.1 km/h 0% 0.0 mm
18:21 13.4 °C 2.3 °C 1019.9 hPa WSW 7.9 km/h 10.1 km/h 47% 0.0 mm
18:26 13.3 °C 2.2 °C 1019.9 hPa WSW 4.0 km/h 12.2 km/h 47% 0.0 mm
18:47 0.0 °C 2.1 °C 0.0 hPa WNW 7.9 km/h 7.9 km/h 0% 0.0 mm
18:52 12.7 °C 2.6 °C 1019.9 hPa WNW 9.7 km/h 10.5 km/h 50% 0.0 mm
Données Historique de Météo Turbie

Mise a jour : 18/06/2018 00:09:15
Généré par Cumulus 1.9.4 (1099)